Weather History for Indianapolis, IN

Change the Weather History Date:

Saturday, January 19, 2013

  Actual Average (KEYE) Record (KEYE)
Temperature  
Mean Temperature 44 °F 28 °F  
Max Temperature 50 °F 35 °F 57 °F (2006)
Min Temperature 37 °F 21 °F 3 °F (2003)
Degree Days  
Heating Degree Days 22 37  
Month to date heating degree days 703  
Since 1 July heating degree days 2759  
Cooling Degree Days 0 0  
Month to date cooling degree days 0  
Year to date cooling degree days 0  
Moisture  
Dew Point 28 °F    
Average Humidity 55    
Maximum Humidity 68    
Minimum Humidity 48    
Precipitation  
Precipitation 0.00 in 0.05 in 0.05 in (2002)
Month to date precipitation 1.77  
Year to date precipitation 1.77  
Sea Level Pressure  
Sea Level Pressure 29.99 in    
Wind  
Wind Speed 19 mph (SW)    
Max Wind Speed 24 mph    
Max Gust Speed 33 mph    
Visibility 10 miles    
Events      
T = Trace of Precipitation, MM = Missing Value Source: NWS Daily Summary

Daily Weather History Graph

Daily Weather History Graph

Search for Another Location

Airport:

Trip Planner

Search our weather history database for the weather conditions in past years. The results will help you decide how hot, cold, wet, or windy it might be!

Date:

Astronomy

Jan. 19, 2013 Rise Set
Actual Time 8:03 AM EST 5:49 PM EST
Civil Twilight 7:33 AM EST 6:18 PM EST
Nautical Twilight 7:00 AM EST 6:51 PM EST
Astronomical Twilight 6:28 AM EST 7:23 PM EST
Moon 12:14 PM EST (1/19) 1:36 AM EST (1/19)
Length of Visible Light 10h 44m
Length of Day
9h 45m
First Quarter, 57% of the Moon is Illuminated
Jan 19
First Quarter
Jan 26
Full
Feb 3
Last Quarter
Feb 10
New
Feb 17
First Quarter

Hourly Weather History & Observations

Time (EST) Temp. Windchill Dew Point Humidity Pressure Visibility Wind Dir Wind Speed Gust Speed Precip Events Conditions
12:15 AM 39.6 °F 29.7 °F 21.2 °F 48% 30.11 in 10.0 mi SSW 20.7 mph 28.8 mph N/A   Clear
12:35 AM 39.6 °F 30.6 °F 21.4 °F 48% 30.12 in 10.0 mi SSW 17.3 mph 25.3 mph N/A   Clear
12:55 AM 39.2 °F 30.5 °F 21.7 °F 50% 30.11 in 10.0 mi SSW 16.1 mph 25.3 mph N/A   Clear
1:15 AM 38.8 °F 30.0 °F 21.7 °F 50% 30.12 in 10.0 mi SSW 16.1 mph 23.0 mph N/A   Clear
1:35 AM 39.2 °F 30.5 °F 21.7 °F 50% 30.12 in 10.0 mi SSW 16.1 mph 25.3 mph N/A   Clear
1:55 AM 39.2 °F 29.0 °F 21.9 °F 50% 30.12 in 10.0 mi SW 21.9 mph 28.8 mph N/A   Clear
2:15 AM 39.0 °F 29.0 °F 22.1 °F 51% 30.13 in 10.0 mi SW 20.7 mph 28.8 mph N/A   Clear
2:35 AM 39.2 °F 29.0 °F 22.1 °F 50% 30.13 in 10.0 mi SW 21.9 mph 32.2 mph N/A   Clear
2:55 AM 38.7 °F 28.0 °F 22.3 °F 52% 30.13 in 10.0 mi SW 23.0 mph 28.8 mph N/A   Clear
3:15 AM 38.3 °F 28.1 °F 22.6 °F 53% 30.13 in 10.0 mi SW 20.7 mph 25.3 mph N/A   Clear
3:35 AM 38.3 °F 28.1 °F 22.6 °F 53% 30.12 in 10.0 mi SW 20.7 mph 25.3 mph N/A   Clear
3:55 AM 38.3 °F 28.4 °F 22.6 °F 53% 30.12 in 10.0 mi SW 19.6 mph 26.5 mph N/A   Clear
4:15 AM 38.3 °F 27.8 °F 22.6 °F 53% 30.11 in 10.0 mi SW 21.9 mph 28.8 mph N/A   Clear
4:35 AM 38.3 °F 28.4 °F 22.8 °F 54% 30.10 in 10.0 mi SW 19.6 mph 27.6 mph N/A   Clear
4:55 AM 37.9 °F 28.2 °F 23.0 °F 55% 30.10 in 10.0 mi SW 18.4 mph 28.8 mph N/A   Clear
5:15 AM 37.8 °F 27.4 °F 23.2 °F 56% 30.09 in 10.0 mi SW 20.7 mph 26.5 mph N/A   Clear
5:35 AM 37.8 °F 27.1 °F 23.4 °F 56% 30.09 in 10.0 mi SW 21.9 mph 26.5 mph N/A   Clear
5:55 AM 37.6 °F 26.9 °F 23.5 °F 57% 30.08 in 10.0 mi SW 21.9 mph 25.3 mph N/A   Clear
6:15 AM 37.6 °F 27.1 °F 23.4 °F 57% 30.08 in 10.0 mi SSW 20.7 mph 26.5 mph N/A   Clear
6:35 AM 37.4 °F 26.9 °F 23.5 °F 57% 30.08 in 10.0 mi SW 20.7 mph 26.5 mph N/A   Clear
6:55 AM 37.6 °F 27.4 °F 23.5 °F 57% 30.08 in 10.0 mi SW 19.6 mph 25.3 mph N/A   Clear
7:55 AM 37.4 °F 27.5 °F 23.9 °F 58% 30.07 in 10.0 mi SW 18.4 mph 24.2 mph N/A   Clear
8:15 AM 37.8 °F 28.0 °F 23.9 °F 57% 30.07 in 10.0 mi SSW 18.4 mph 24.2 mph N/A   Clear
8:55 AM 38.7 °F 29.8 °F 24.6 °F 57% 30.06 in 10.0 mi SSW 16.1 mph 24.2 mph N/A   Clear
9:15 AM 39.4 °F 30.4 °F 24.8 °F 56% 30.06 in 10.0 mi SSW 17.3 mph 23.0 mph N/A   Clear
9:35 AM 40.1 °F 30.7 °F 25.2 °F 55% 30.06 in 10.0 mi SSW 19.6 mph - N/A   Clear
10:35 AM 42.3 °F 34.1 °F 25.7 °F 52% 30.06 in 10.0 mi SSW 17.3 mph 27.6 mph N/A   Clear
10:55 AM 43.3 °F 34.7 °F 26.4 °F 51% 30.06 in 10.0 mi SSW 20.7 mph 26.5 mph N/A   Clear
11:15 AM 44.1 °F 35.2 °F 26.6 °F 50% 30.04 in 10.0 mi SSW 23.0 mph 32.2 mph N/A   Clear
11:35 AM 44.6 °F 36.9 °F 27.0 °F 50% 30.03 in 10.0 mi SW 18.4 mph 33.4 mph N/A   Clear
12:15 PM 46.4 °F 38.7 °F 28.2 °F 49% 30.00 in 10.0 mi SW 20.7 mph 31.1 mph N/A   Clear
12:35 PM 47.1 °F - 28.9 °F 49% 29.98 in 10.0 mi SSW 23.0 mph 27.6 mph N/A   Clear
12:55 PM 47.7 °F - 29.7 °F 50% 29.96 in 10.0 mi SSW 23.0 mph 26.5 mph N/A   Clear
1:15 PM 48.2 °F - 29.7 °F 49% 29.95 in 10.0 mi SW 23.0 mph 28.8 mph N/A   Clear
1:35 PM 48.6 °F - 30.0 °F 49% 29.94 in 10.0 mi SSW 23.0 mph 31.1 mph N/A   Clear
1:55 PM 49.1 °F - 30.0 °F 48% 29.93 in 10.0 mi SSW 20.7 mph 26.5 mph N/A   Clear
2:35 PM 50.0 °F - 30.7 °F 48% 29.90 in 10.0 mi SSW 24.2 mph 33.4 mph N/A   Clear
2:55 PM 50.0 °F - 31.1 °F 48% 29.89 in 10.0 mi SW 21.9 mph 31.1 mph N/A   Clear
3:15 PM 50.0 °F - 31.3 °F 49% 29.89 in 10.0 mi SW 19.6 mph 32.2 mph N/A   Clear
3:35 PM 50.0 °F - 31.5 °F 49% 29.87 in 10.0 mi SSW 23.0 mph 29.9 mph N/A   Clear
3:55 PM 50.0 °F - 31.5 °F 49% 29.86 in 10.0 mi SSW 21.9 mph 28.8 mph N/A   Clear
4:15 PM 49.5 °F - 31.6 °F 50% 29.86 in 10.0 mi SSW 18.4 mph 27.6 mph N/A   Clear
4:35 PM 49.5 °F - 32.0 °F 51% 29.88 in 10.0 mi SW 17.3 mph 25.3 mph N/A   Clear
4:55 PM 48.6 °F - 32.0 °F 53% 29.89 in 10.0 mi SW 17.3 mph - N/A   Clear
5:15 PM 48.2 °F - 32.0 °F 54% 29.88 in 10.0 mi SW 17.3 mph 27.6 mph N/A   Clear
5:35 PM 47.5 °F - 32.0 °F 55% 29.88 in 10.0 mi SW 12.7 mph 18.4 mph N/A   Clear
5:55 PM 46.8 °F - 32.0 °F 57% 29.89 in 10.0 mi SW 13.8 mph - N/A   Clear
6:15 PM 46.6 °F - 32.0 °F 57% 29.88 in 10.0 mi SW 13.8 mph 18.4 mph N/A   Clear
6:35 PM 46.8 °F - 32.0 °F 57% 29.87 in 10.0 mi SSW 13.8 mph 21.9 mph N/A   Clear
6:55 PM 46.0 °F 40.2 °F 32.0 °F 58% 29.87 in 10.0 mi SSW 12.7 mph - N/A   Clear
7:15 PM 46.4 °F 39.8 °F 32.0 °F 57% 29.87 in 10.0 mi SW 16.1 mph 23.0 mph N/A   Clear
7:35 PM 46.4 °F 39.2 °F 32.0 °F 57% 29.87 in 10.0 mi SSW 18.4 mph 26.5 mph N/A   Clear
7:55 PM 46.4 °F 39.2 °F 32.2 °F 58% 29.87 in 10.0 mi SSW 18.4 mph 24.2 mph N/A   Clear
8:15 PM 45.7 °F 38.8 °F 32.4 °F 60% 29.89 in 10.0 mi SW 16.1 mph 26.5 mph N/A   Clear
8:35 PM 45.7 °F 38.6 °F 32.7 °F 61% 29.89 in 10.0 mi SW 17.3 mph 26.5 mph N/A   Clear
8:55 PM 45.3 °F 38.1 °F 32.9 °F 62% 29.89 in 10.0 mi SW 17.3 mph - N/A   Clear
9:15 PM 45.5 °F 37.8 °F 33.1 °F 62% 29.89 in 10.0 mi SW 19.6 mph 24.2 mph N/A   Clear
9:35 PM 44.8 °F 37.4 °F 33.1 °F 64% 29.89 in 10.0 mi SW 17.3 mph 23.0 mph N/A   Clear
9:55 PM 44.8 °F 37.1 °F 33.3 °F 64% 29.89 in 10.0 mi SW 18.4 mph 26.5 mph N/A   Clear
10:15 PM 44.4 °F 37.2 °F 33.3 °F 65% 29.90 in 10.0 mi WSW 16.1 mph - N/A   Clear
10:35 PM 44.1 °F 37.1 °F 33.1 °F 65% 29.90 in 10.0 mi WSW 15.0 mph - N/A   Clear
10:55 PM 43.7 °F 36.0 °F 33.1 °F 66% 29.90 in 10.0 mi WSW 17.3 mph - N/A   Clear
11:15 PM 42.8 °F 35.4 °F 32.9 °F 68% 29.91 in 10.0 mi WSW 15.0 mph 19.6 mph N/A   Clear
11:35 PM 43.0 °F 36.0 °F 32.9 °F 68% 29.91 in 10.0 mi WSW 13.8 mph - N/A   Clear
11:55 PM 43.0 °F 36.0 °F 32.5 °F 67% 29.91 in 10.0 mi WSW 13.8 mph - N/A   Clear